Regional Weather Roundup
Issued by NWS

Home | Current Version | Previous Version | Graphics & Text | Print | Product List | Glossary On
Versions: 1 2 3 4 5 6 7 8 9 10 11 12 13 14 15 16 17 18 19 20 21 22 23 24 25 26 27 28 29 30 31 32 33 34 35 36 37 38 39 40 41 42 43 44 45 46 47 48 49 50
000
ASUS43 KLMK 180410
RWRKY
KENTUCKY REGIONAL WEATHER ROUNDUP
NATIONAL WEATHER SERVICE LOUISVILLE KY
1100 PM EST FRI NOV 17 2017

NOTE "FAIR" INDICATES FEW OR NO CLOUDS BELOW 12,000 FEET
WITH NO SIGNIFICANT WEATHER AND/OR OBSTRUCTIONS TO VISIBILITY.

KYZ001>023-026-027-061>063-070>075-180500-
WESTERN AND SOUTH CENTRAL KENTUCKY

CITY           SKY/WX    TMP DP  RH WIND       PRES   REMARKS
PADUCAH        CLOUDY    65  51  60 S13G29    29.73F
HENDERSON      CLOUDY    59  41  51 S15       29.77F
OWENSBORO      CLOUDY    59  40  49 S15       29.79F
HOPKINSVILLE   MOCLDY    62  41  46 S12       29.84R
BOWLING GREEN  CLOUDY    62  34  35 S13G22    29.86F
GLASGOW        CLOUDY    58  33  39 S8        29.87F
$$

KYZ024-025-028>034-038-045-046-053-180500-
NORTH CENTRAL KENTUCKY

CITY           SKY/WX    TMP DP  RH WIND       PRES   REMARKS
LOUISVILLE/SDF MOCLDY    54  39  57 S9        29.80F
LOUISVILLE/LOU PTCLDY    54  39  57 S8        29.82F
FORT KNOX      MOCLDY    56  36  46 S16       29.81F
$$

KYZ035>037-039>044-047>052-055>060-089>105-180500-
NORTHEAST KENTUCKY

CITY           SKY/WX    TMP DP  RH WIND       PRES   REMARKS
LEXINGTON      CLOUDY    53  36  52 S14       29.87F
COVINGTON      CLOUDY    49  35  58 S16       29.80F
FRANKFORT      CLOUDY    53  36  52 S10       29.83F
$$

KYZ054-064>069-076>088-106>120-180500-
SOUTHEAST KENTUCKY

CITY           SKY/WX    TMP DP  RH WIND       PRES   REMARKS
JACKSON        CLOUDY    51  29  42 VRB5      29.94F
LONDON         PTCLDY    53  35  50 S5        29.95S
SOMERSET       CLOUDY    55  36  47 S9        29.94F
MIDDLESBORO    PTCLDY    42  38  85 CALM      30.00F
MONTICELLO     CLOUDY    59  37  44 SE10G17   29.94F
$$





USA.gov is the U.S. government's official web portal to all federal, state and local government web resources and services.